Weather History for Nome, AK

Change the Weather History Date:

Sunday, May 10, 2009

  Actual Average Record
Temperature  
Mean Temperature 33 °F 34 °F  
Max Temperature 34 °F 40 °F 62 °F (1995)
Min Temperature 32 °F 28 °F 8 °F (1949)
Degree Days  
Heating Degree Days 32 31  
Month to date heating degree days 324 330  
Since 1 July heating degree days 13536 12643  
Cooling Degree Days 0    
Month to date cooling degree days 0  
Year to date cooling degree days 0  
Moisture  
Dew Point 32 °F    
Average Humidity 0    
Maximum Humidity 0    
Minimum Humidity 0    
Precipitation  
Precipitation T in 0.03 in 0.25 in (1988)
Month to date precipitation T 0.28  
Year to date precipitation 5.06 3.56  
Snow  
Snow 0.00 in 0.10 in 1.60 in (1977)
Month to date snowfall T 1.2  
Since 1 July snowfall 113.3 74.3  
Snow Depth 15.00 in    
Sea Level Pressure  
Sea Level Pressure 30.49 in    
Wind  
Wind Speed 8 mph (WSW)    
Max Wind Speed 23 mph    
Max Gust Speed 26 mph    
Visibility 7 miles    
Events Fog , Snow    
T = Trace of Precipitation, MM = Missing Value Source: NWS Daily Summary

Daily Weather History Graph

Daily Weather History Graph

Search for Another Location

Airport:

Trip Planner

Search our weather history database for the weather conditions in past years. The results will help you decide how hot, cold, wet, or windy it might be!

Date:

Astronomy

May. 10, 2009 Rise Set
Actual Time 5:58 AM AKDT 12:00 AM AKDT
Civil Twilight 4:26 AM AKDT 1:35 AM AKDT
Nautical Twilight Sun does not rise Sun does not rise
Astronomical Twilight Sun does not rise Sun does not rise
Moon 3:41 AM AKDT (5/10) 4:08 AM AKDT (5/10)
Length of Visible Light 21h 08m
Length of Day
18h 02m
Full, 97% of the Moon is Illuminated
May 10
Full
May 16
Last Quarter
May 24
New
May 30
First Quarter
Jun 7
Full

Hourly Weather History & Observations

Time (AKDT) Temp. Windchill Dew Point Humidity Pressure Visibility Wind Dir Wind Speed Gust Speed Precip Events Conditions
12:09 AM 32.0 °F 25.6 °F 30.2 °F 93% 30.47 in 10.0 mi SW 6.9 mph - N/A   Overcast
12:53 AM 32.0 °F 27.5 °F 30.9 °F 96% 30.48 in 10.0 mi WSW 4.6 mph - N/A   Overcast
1:53 AM 32.0 °F 25.6 °F 30.9 °F 96% 30.48 in 10.0 mi WSW 6.9 mph - N/A   Overcast
2:53 AM 32.0 °F 25.6 °F 30.9 °F 96% 30.48 in 10.0 mi WSW 6.9 mph - N/A   Overcast
3:53 AM 32.0 °F 24.8 °F 30.9 °F 96% 30.48 in 10.0 mi SW 8.1 mph - N/A   Overcast
4:04 AM 32.0 °F 25.6 °F 30.2 °F 93% 30.48 in 10.0 mi WSW 6.9 mph - N/A   Overcast
4:12 AM 32.0 °F 25.6 °F 30.2 °F 93% 30.48 in 10.0 mi WSW 6.9 mph - N/A   Overcast
4:53 AM 32.0 °F 26.4 °F 30.9 °F 96% 30.48 in 4.0 mi WSW 5.8 mph - 0.00 in Snow Light Snow
5:25 AM 32.0 °F 25.6 °F 30.2 °F 93% 30.48 in 10.0 mi WSW 6.9 mph - 0.00 in   Overcast
5:53 AM 32.0 °F 26.4 °F 30.9 °F 96% 30.48 in 10.0 mi WSW 5.8 mph - 0.00 in   Overcast
6:11 AM 32.0 °F 24.8 °F 30.2 °F 93% 30.48 in 10.0 mi SW 8.1 mph - N/A   Overcast
6:53 AM 32.0 °F 24.2 °F 30.9 °F 96% 30.48 in 10.0 mi WSW 9.2 mph - N/A   Overcast
7:53 AM 32.0 °F 23.6 °F 30.9 °F 96% 30.49 in 10.0 mi West 10.4 mph - N/A   Overcast
8:53 AM 32.0 °F 26.4 °F 32.0 °F 100% 30.49 in 10.0 mi West 5.8 mph - N/A   Overcast
9:18 AM 33.8 °F 27.0 °F 32.0 °F 93% 30.49 in 10.0 mi SW 8.1 mph - N/A   Overcast
9:53 AM 33.1 °F 23.9 °F 32.0 °F 96% 30.50 in 10.0 mi SW 12.7 mph - N/A   Overcast
10:37 AM 33.8 °F 26.4 °F 32.0 °F 93% 30.50 in 9.0 mi SW 9.2 mph - N/A   Overcast
10:53 AM 32.0 °F 24.8 °F 32.0 °F 100% 30.50 in 9.0 mi SW 8.1 mph - 0.00 in   Light Drizzle
11:32 AM 33.8 °F 25.3 °F 32.0 °F 93% 30.50 in 6.0 mi WSW 11.5 mph - 0.00 in   Light Drizzle
11:53 AM 33.1 °F 23.0 °F 32.0 °F 96% 30.50 in 10.0 mi WSW 15.0 mph - 0.00 in   Light Drizzle
12:53 PM 34.0 °F 25.5 °F 32.0 °F 92% 30.51 in 10.0 mi WSW 11.5 mph - 0.00 in   Overcast
1:53 PM 34.0 °F 25.5 °F 32.0 °F 92% 30.51 in 10.0 mi WSW 11.5 mph - N/A   Overcast
2:26 PM 33.8 °F 27.0 °F 32.0 °F 93% 30.51 in 6.0 mi WSW 8.1 mph - N/A   Light Drizzle
2:53 PM 34.0 °F 27.2 °F 30.9 °F 89% 30.51 in 10.0 mi SW 8.1 mph - 0.00 in   Overcast
3:53 PM 33.1 °F 30.0 °F 30.9 °F 92% 30.51 in 10.0 mi SSW 3.5 mph - N/A   Overcast
4:53 PM 33.1 °F 27.7 °F 30.9 °F 92% 30.50 in 10.0 mi SSW 5.8 mph - N/A   Overcast
5:53 PM 33.1 °F 26.1 °F 32.0 °F 96% 30.49 in 5.0 mi SW 8.1 mph - 0.00 in   Light Drizzle
6:53 PM 33.1 °F 30.0 °F 32.0 °F 96% 30.49 in 7.0 mi South 3.5 mph - 0.00 in   Overcast
7:38 PM 33.8 °F 27.7 °F 32.0 °F 93% 30.49 in 1.8 mi SW 6.9 mph - 0.00 in   Light Drizzle
7:53 PM 33.1 °F 26.9 °F 33.1 °F 100% 30.48 in 1.0 mi WSW 6.9 mph - 0.00 in   Light Drizzle
8:12 PM 33.8 °F 26.4 °F 33.8 °F 100% 30.48 in 0.5 mi WSW 9.2 mph - 0.00 in Fog Light Drizzle
8:53 PM 33.1 °F 24.4 °F 32.0 °F 96% 30.47 in 0.5 mi WSW 11.5 mph - 0.00 in Fog Fog
9:21 PM 33.8 °F 24.8 °F 32.0 °F 93% 30.47 in 0.8 mi WSW 12.7 mph - N/A   Overcast
9:53 PM 32.0 °F 24.2 °F 32.0 °F 100% 30.48 in 1.2 mi West 9.2 mph - N/A   Overcast
10:39 PM 32.0 °F 19.5 °F 32.0 °F 100% 30.45 in 0.8 mi WSW 21.9 mph - N/A   Overcast
10:53 PM 32.0 °F 25.6 °F 32.0 °F 100% 30.48 in 0.5 mi WSW 6.9 mph 19.6 mph N/A Fog Fog
11:53 PM 32.0 °F 24.2 °F 32.0 °F 100% 30.47 in 0.2 mi West 9.2 mph - 0.00 in Fog Fog